Regional Weather Roundup
Issued by NWS

Home | Current Version | Previous Version | Graphics & Text | Print | Product List | Glossary On
Versions: 1 2 3 4 5 6 7 8 9 10 11 12 13 14 15 16 17 18 19 20 21 22 23 24 25 26 27 28 29 30 31 32 33 34 35 36 37 38 39 40 41 42 43 44 45 46 47 48 49 50
000
ASUS45 KSLC 202010
RWRUT

UTAH REGIONAL WEATHER ROUNDUP
NATIONAL WEATHER SERVICE SALT LAKE CITY UT
200 PM MDT MON APR 20 2015

UTZ001>011-023>025-202100-

NORTHERN UTAH

CITY           SKY/WX    TMP DP  RH WIND       PRES   REMARKS
BRIGHAM CITY   SUNNY     65  21  19 S6        29.93F
HILL AFB       SUNNY     63  26  24 VRB6      29.94F
LOGAN          SUNNY     63  26  24 CALM      29.92F
OGDEN          SUNNY     65  26  23 VRB6      29.93F
PROVO AIRPORT  MOSUNNY   64  27  24 VRB5      29.93F
SALT LAKE CITY MOSUNNY   66  23  19 NW8       29.92F
VERNAL         MOSUNNY   61  29  29 S9        29.93F
WENDOVER       SUNNY     66  19  16 SE9       29.93F
HEBER CITY     SUNNY     64  19  17 CALM      29.92F
WEST JORDAN    SUNNY     64  34  32 NW9G16    29.94F

$$

UTZ012>022-026-027-202100-

SOUTHERN/CENTRAL UTAH

CITY           SKY/WX    TMP DP  RH WIND       PRES   REMARKS
BLANDING       MOSUNNY   64  28  25 S10G20    30.01F
BRYCE CANYON   MOSUNNY   65   7  10 NW21G26   30.01F
CEDAR CITY     SUNNY     70  15  12 NW13G21   29.92F
DELTA          SUNNY     67  18  14 CALM      29.93F
HANKSVILLE     SUNNY     70  32  24 SE6       29.91F
MILFORD        SUNNY     71  20  14 N13       29.91F
MOAB/CYNLANDS  SUNNY     66  32  28 VRB5      29.90F
PRICE          SUNNY     64  25  22 E3        29.92F
ST GEORGE      CLEAR     81  25  12 W10       29.84F
KANAB          MOSUNNY   75  10   8 SW13G21   29.93F

$$

REGIONAL REPORTS     COLORADO/ARIZONA

CITY           SKY/WX    TMP DP  RH WIND       PRES   REMARKS
CRAIG, CO      CLOUDY    53  33  46 NW9G17    29.97F
GRAND JUNCTION MOSUNNY   62  34  35 N7        29.92F
RIFLE          PTSUNNY   61  31  32 W22G30    29.93F
MONTROSE       MOSUNNY   56  33  42 CALM      29.98S
CORTEZ         MOSUNNY   67  22  18 W13G22    29.94F
PAGE, AZ       SUNNY     75  21  13 N7        29.87F
GRAND CANYON   PTSUNNY   62  18  18 W17G25    30.03R
KINGMAN        SUNNY     82  13   7 SW18G26   29.88F
FLAGSTAFF      PTSUNNY   62  17  17 E10       30.02F

$$

REGIONAL REPORTS    NEVADA/IDAHO/WYOMING

CITY           SKY/WX    TMP DP  RH WIND       PRES   REMARKS
LAS VEGAS, NV  MOSUNNY   87  17   7 E6        29.75F
ELY            SUNNY     63   7  11 VRB3      29.97F
ELKO           SUNNY     66  18  15 VRB6      29.95F
POCATELLO, ID  SUNNY     64  24  21 NW13      29.95F
BURLEY         SUNNY     64  28  25 MISG      29.92F
EVANSTON, WY   PTSUNNY   58  20  22 W10G25    29.97F
ROCK SPRINGS   PTSUNNY   50  25  37 NW12      29.95F
KEMMERER       PTSUNNY   55  21  26 W18G24    29.97F

$$


USA.gov is the U.S. government's official web portal to all federal, state and local government web resources and services.